Home > Weather > Formosa > Past weeks

Flag for Argentina Past Weather in Formosa, Formosa, Argentina — Yesterday and Last 2 Weeks

Now
55 °F

Drizzle. Low clouds.


Feels Like: 53 °F
Forecast: 52 / 62 °F
Wind: 10 mph from West

Location: Formosa Aerodrome

Current Time: Aug 30, 2016 at 12:18:15 AM

Latest Report: Aug 29, 2016 at 11:00 PM


Visibility: 3 mi

Pressure: 30.04 "Hg

Humidity: 94%

Dew Point: 54 °F

Location of FormosaLocation

Past Weather in Formosa — Graph

°F

Formosa Temperature Yesterday

Maximum temperature yesterday: 61 °F (at 12:00 AM)
Minimum temperature yesterday: 55 °F (at 8:00 PM)
Average temperature yesterday: 59 °F

High & Low Weather Summary for the Past Weeks

 TemperatureHumidityPressure
High99 °F (Aug 26, 4:00 PM)100% (Aug 15, 5:00 AM)30.45 "Hg (Aug 15, 5:00 AM)
Low37 °F (Aug 22, 5:00 AM)26% (Aug 27, 1:00 PM)29.59 "Hg (Aug 16, 7:00 PM)
Average68 °F70%29.94 "Hg
* Reported Aug 14 11:00 PM — Aug 29 11:00 PM, Formosa, Weather by CustomWeather, © 2016

Note: Actual official high and low records may vary slightly from our data, if they occured in-between our weather recording intervals... More about our weather records

Advertising

Formosa Weather History for the Previous 24 Hours

Scroll right to see more
 ConditionsComfort  
Time TempWeatherWind HumidityBarometerVisibility
11:00 PM
Mon, Aug 29
55 °FDrizzle. Low clouds.10 mph94%30.04 "Hg3 mi
10:00 PM55 °FDrizzle. Low clouds.6 mph100%30.04 "Hg2 mi
9:00 PM55 °FDrizzle. Mostly cloudy.8 mph100%30.04 "Hg4 mi
8:00 PM55 °FMostly cloudy.8 mph100%30.01 "HgN/A
7:00 PM57 °FMostly cloudy.9 mph94%30.04 "HgN/A
6:00 PM57 °FDrizzle. Mostly cloudy.10 mph100%30.01 "Hg1 mi
5:00 PM57 °FDrizzle. Low clouds.5 mph100%29.98 "Hg1 mi
4:00 PM57 °FDrizzle. Low clouds.13 mph100%29.98 "Hg1 mi
3:00 PM57 °FDrizzle. Low clouds.9 mph100%29.98 "Hg1 mi
2:00 PM57 °FDrizzle. Low clouds.12 mph100%30.01 "Hg1 mi
1:00 PM59 °FDrizzle. Mostly cloudy.16 mph94%30.01 "Hg1 mi
12:00 PM59 °FDrizzle. Mostly cloudy.10 mph100%30.01 "Hg1 mi
11:00 AM61 °FDrizzle. Mostly cloudy.12 mph94%30.01 "Hg1 mi
10:00 AM61 °FDrizzle. Mostly cloudy.14 mph94%29.98 "Hg1 mi
9:00 AM61 °FRain. Mostly cloudy.12 mph100%29.98 "Hg1 mi
8:00 AM61 °FRain. Mostly cloudy.9 mph100%29.95 "Hg1 mi
7:00 AM61 °FDrizzle. Low clouds.18 mph100%29.92 "Hg1 mi
6:00 AM61 °FLow clouds.18 mph100%29.89 "HgN/A
5:00 AM61 °FLow clouds.17 mph100%29.89 "HgN/A
4:00 AM61 °FLow clouds.10 mph100%29.92 "HgN/A
3:00 AM61 °FLow clouds.15 mph100%29.92 "HgN/A
2:00 AM61 °FLow clouds.16 mph100%29.92 "HgN/A
1:00 AM61 °FLow clouds.14 mph100%29.95 "HgN/A
12:00 AM61 °FLight rain. Mostly cloudy.7 mph100%29.95 "HgN/A
Weather by CustomWeather, © 2016

See weather overviewHow to use our weather pages